Rbgn^[z[y[W
メイン
   新天体発見情報
     Comet P/2005 YQ127 (LINEAR)
投稿するにはまず登録を

フラット表示 前のトピック | 次のトピック
投稿者 スレッド
佐藤裕久
投稿日時: 2006-1-12 21:38
モデレータ
登録日: 2005-6-12
居住地: 日本
投稿: 2683
オンライン
Comet P/2005 YQ127 (LINEAR)

LINEARによって発見された天体2005 YQ127について多くの観測が、彗星状であることを記述
している。
多くは、7″〜15″の拡散したコマがある。C. W. Hergenrotherは、Steward天文台の1.54-m
Kuiper望遠鏡で40″の拡散したコマを見ている。

発見位置は次のとおり、

     2005 UT             R.A. (2000) Decl.       Mag.   Observer
     Dec. 28.28042   05 58 03.15   +25 25 49.5   18.0   LINEAR
 
軌道要素と位置推算表は次のとおり、

Orbital elements:
    P/2005 YQ127 (LINEAR)
Epoch 2005 Nov. 6.0 TT = JDT 2453680.5
T 2005 Nov. 3.95536 TT                                  MPC
q   1.9202067            (2000.0)            P               Q
n   0.12930617     Peri.  152.32196     +0.34375535     -0.89434296
a   3.8730808      Node   276.37323     +0.79954297     +0.43866114
e   0.5042172      Incl.   16.74467     +0.49250715     -0.08790381
P   7.62
From 61 observations 2005 Dec. 28-2006 Jan. 10, mean residual 0".62.

Ephemeris:
    P/2005 YQ127 (LINEAR)
Date    TT    R. A. (2000) Decl.     Delta      r     Elong.  Phase   m1
2006 01 05    05 52.60   +23 33.0    1.032    1.996   163.9     7.9  17.1
2006 01 15    05 47.94   +21 19.2    1.097    2.021   152.5    13.0  17.3
2006 01 25    05 46.53   +19 25.5    1.182    2.049   141.9    17.3  17.5
2006 02 04    05 48.45   +17 53.6    1.287    2.080   132.1    20.6  17.7
2006 02 14    05 53.47   +16 41.3    1.406    2.114   123.1    23.0  18.0
2006 02 24    06 01.12   +15 44.6    1.537    2.150   114.9    24.7  18.3
2006 03 06    06 10.96   +14 58.9    1.678    2.189   107.3    25.6  18.5
2006 03 16    06 22.56   +14 20.0    1.826    2.229   100.2    26.0  18.8
2006 03 26    06 35.53   +13 44.2    1.979    2.271    93.6    26.0  19.0
2006 04 05    06 49.55   +13 08.9    2.136    2.315    87.3    25.6  19.3
2006 04 15    07 04.35   +12 31.6    2.294    2.360    81.3    24.8  19.5
2006 04 25    07 19.70   +11 51.1    2.453    2.406    75.5    23.9  19.8
2006 05 05    07 35.43   +11 06.2    2.611    2.454    69.9    22.7  20.0
2006 05 15    07 51.37   +10 16.1    2.767    2.502    64.4    21.4  20.2
2006 05 25    08 07.41   +09 20.8    2.920    2.551    59.0    19.9  20.4
2006 06 04    08 23.45   +08 19.9    3.068    2.600    53.7    18.3  20.6
2006 06 14    08 39.41   +07 13.6    3.211    2.650    48.5    16.7  20.8
2006 06 24    08 55.23   +06 02.3    3.348    2.701    43.4    15.0  20.9
2006 07 04    09 10.86   +04 46.0    3.477    2.751    38.2    13.2  21.1
2006 07 14    09 26.26   +03 25.4    3.597    2.802    33.2    11.4  21.3

Computer: Williams

(CBET 361、MPEC 2006-A57)
フラット表示 前のトピック | 次のトピック

題名 投稿者 日時
 » Comet P/2005 YQ127 (LINEAR) 佐藤裕久 2006-1-12 21:38

投稿するにはまず登録を
 
© 1999 Tsutomu Seki.